Time,TemperatureF,DewpointF,PressureIn,WindDirection,WindDirectionDegrees,WindSpeedMPH,WindSpeedGustMPH,Humidity,HourlyPrecipIn,Conditions,Clouds,dailyrainin,SoftwareType,DateUTC
2013-04-15 17:31:00,55.0,36.0,29.86,West,280,21.0,32.0,47,-99.99,,,-99.99,,2013-04-16 00:31:00,
2013-04-15 17:42:00,55.0,36.0,29.86,West,280,21.0,32.0,47,-99.99,,,-99.99,,2013-04-16 00:42:00,
2013-04-15 17:51:00,55.0,36.0,29.86,West,280,18.0,29.0,47,-99.99,,,-99.99,,2013-04-16 00:51:00,
2013-04-15 18:02:00,55.0,36.0,29.86,West,280,18.0,29.0,47,-99.99,,,-99.99,,2013-04-16 01:02:00,
2013-04-15 18:11:00,54.0,36.0,29.86,West,270,22.0,30.0,50,-99.99,,,-99.99,,2013-04-16 01:11:00,
2013-04-15 18:22:00,54.0,36.0,29.86,West,270,22.0,30.0,50,-99.99,,,-99.99,,2013-04-16 01:22:00,
2013-04-15 18:32:00,54.0,37.0,29.87,WNW,290,15.0,30.0,54,-99.99,,,-99.99,,2013-04-16 01:32:00,
2013-04-15 18:42:00,54.0,37.0,29.87,WNW,290,15.0,30.0,54,-99.99,,,-99.99,,2013-04-16 01:42:00,
2013-04-15 18:51:00,54.0,37.0,29.86,West,270,21.0,27.0,54,-99.99,,,-99.99,,2013-04-16 01:51:00,
2013-04-15 19:02:00,54.0,37.0,29.86,West,270,21.0,27.0,54,-99.99,,,-99.99,,2013-04-16 02:02:00,
2013-04-15 19:12:00,54.0,37.0,29.86,West,270,21.0,27.0,54,-99.99,,,-99.99,,2013-04-16 02:12:00,
2013-04-15 19:22:00,54.0,37.0,29.86,West,270,21.0,27.0,54,-99.99,,,-99.99,,2013-04-16 02:22:00,
2013-04-15 19:32:00,54.0,37.0,29.86,West,270,21.0,27.0,54,-99.99,,,-99.99,,2013-04-16 02:32:00,
2013-04-15 19:42:00,52.0,39.0,29.87,WNW,290,20.0,28.0,61,-99.99,,,-99.99,,2013-04-16 02:42:00,
2013-04-15 19:52:00,52.0,39.0,29.88,WNW,290,14.0,27.0,61,-99.99,,,-99.99,,2013-04-16 02:52:00,
2013-04-15 20:02:00,52.0,39.0,29.88,WNW,290,14.0,27.0,61,-99.99,,,-99.99,,2013-04-16 03:02:00,
2013-04-15 20:12:00,50.0,39.0,29.89,West,280,14.0,-999.0,66,-99.99,,,-99.99,,2013-04-16 03:12:00,
2013-04-15 20:22:00,50.0,39.0,29.89,West,280,14.0,-999.0,66,-99.99,,,-99.99,,2013-04-16 03:22:00,
2013-04-15 20:32:00,48.0,39.0,29.89,WNW,290,13.0,17.0,70,-99.99,,,-99.99,,2013-04-16 03:32:00,
2013-04-15 20:43:00,48.0,39.0,29.89,WNW,290,13.0,17.0,70,-99.99,,,-99.99,,2013-04-16 03:43:00,
2013-04-15 20:52:00,48.0,39.0,29.90,WNW,300,17.0,23.0,70,-99.99,,,-99.99,,2013-04-16 03:52:00,
2013-04-15 21:02:00,48.0,39.0,29.90,WNW,300,17.0,23.0,70,-99.99,,,-99.99,,2013-04-16 04:02:00,
2013-04-15 21:12:00,48.0,37.0,29.91,WNW,290,16.0,22.0,66,-99.99,,,-99.99,,2013-04-16 04:12:00,
2013-04-15 21:23:00,48.0,37.0,29.91,WNW,290,16.0,22.0,66,-99.99,,,-99.99,,2013-04-16 04:23:00,
2013-04-15 21:32:00,46.0,37.0,29.92,West,280,13.0,18.0,70,-99.99,,,-99.99,,2013-04-16 04:32:00,
2013-04-15 21:42:00,46.0,37.0,29.92,West,280,13.0,18.0,70,-99.99,,,-99.99,,2013-04-16 04:42:00,
2013-04-15 21:52:00,46.0,37.0,29.94,North,-99,7.0,-999.0,70,-99.99,,,-99.99,,2013-04-16 04:52:00,
2013-04-15 22:02:00,46.0,37.0,29.94,North,-99,7.0,-999.0,70,-99.99,,,-99.99,,2013-04-16 05:02:00,
2013-04-15 22:11:00,46.0,37.0,29.95,SW,220,6.0,-999.0,70,-99.99,,,-99.99,,2013-04-16 05:11:00,
2013-04-15 22:22:00,46.0,37.0,29.95,SW,220,6.0,-999.0,70,-99.99,,,-99.99,,2013-04-16 05:22:00,
2013-04-15 22:32:00,46.0,37.0,29.96,North,0,0.0,-999.0,70,-99.99,,,-99.99,,2013-04-16 05:32:00,
2013-04-15 22:42:00,46.0,37.0,29.96,North,0,0.0,-999.0,70,-99.99,,,-99.99,,2013-04-16 05:42:00,
2013-04-15 22:51:00,46.0,37.0,29.96,WSW,240,6.0,-999.0,70,-99.99,,,-99.99,,2013-04-16 05:51:00,
2013-04-15 23:02:00,46.0,37.0,29.96,WSW,240,6.0,-999.0,70,-99.99,,,-99.99,,2013-04-16 06:02:00,
2013-04-15 23:12:00,46.0,37.0,29.96,West,270,10.0,15.0,70,-99.99,,,-99.99,,2013-04-16 06:12:00,
2013-04-15 23:22:00,46.0,37.0,29.96,West,270,10.0,15.0,70,-99.99,,,-99.99,,2013-04-16 06:22:00,
2013-04-15 23:32:00,46.0,37.0,29.96,West,280,10.0,18.0,70,-99.99,,,-99.99,,2013-04-16 06:32:00,
2013-04-15 23:42:00,46.0,37.0,29.96,West,280,10.0,18.0,70,-99.99,,,-99.99,,2013-04-16 06:42:00,
2013-04-15 23:51:00,46.0,37.0,29.97,West,270,12.0,20.0,70,-99.99,,,-99.99,,2013-04-16 06:51:00,